Location: Nairn
(57.5833°N, 3.8667°W)
Time: 21:01:54
(UTC+00:00)

Altair - Pass Details

Date: 12 October 2022
Orbit: 1501 x 1682 km, 47.2° (Epoch: 05 December)

Event Time Altitude Azimuth Distance (km) Brightness Sun altitude
Exits shadow 01:00:08 11° 116° (ESE) 3,729 9.4 -38.5°
Drops below altitude 10° 01:01:18 10° 109° (ESE) 3,815 9.5 -38.4°
Sets 01:07:35 0° 80° (E) 4,854 10.5 -38.2°
